DL4LAM-15 Weather Reports


time (UTC)temp
C
wind
direction
speed
KPH
gust
KPH
rain 1hr
cm
rain 24hr
cm
rain mn
cm
humidity
%
barometer
mb
20260507094016 8 68 3.2 8.0 0.00 1.14 0.36 96 1014.2
20260507093516 8 68 3.2 9.7 0.00 1.14 0.36 96 1014.1
20260507093017 8 68 1.6 11.3 0.00 1.14 0.36 96 1014.0
20260507092016 8 45 1.6 8.0 0.00 1.14 0.36 96 1013.9
20260507091516 8 68 3.2 6.4 0.00 1.14 0.36 96 1013.9
20260507090516 8 90 1.6 9.7 0.00 1.17 0.36 96 1013.8
20260507090016 8 68 1.6 6.4 0.03 1.17 0.36 96 1013.8
20260507085516 8 0.0 3.2 0.03 1.17 0.36 96 1013.8
20260507084516 8 0.0 4.8 0.03 1.17 0.36 96 1013.7
20260507084016 8 0.0 3.2 0.03 1.19 0.36 96 1013.6
20260507083017 8 0.0 4.8 0.03 1.22 0.36 96 1013.5
20260507082516 8 0.0 6.4 0.03 1.22 0.36 97 1013.5
20260507081016 8 68 1.6 6.4 0.03 1.27 0.36 97 1013.3
20260507080516 8 0.0 3.2 0.03 1.27 0.36 97 1013.2
20260507080016 8 0.0 3.2 0.00 1.24 0.33 97 1013.1
20260507075016 8 68 1.6 11.3 0.00 1.24 0.33 97 1013.1
20260507074516 8 0.0 4.8 0.00 1.27 0.33 97 1013.0
20260507074016 8 90 1.6 8.0 0.00 1.27 0.33 97 1013.0
20260507073516 8 45 3.2 8.0 0.00 1.27 0.33 97 1012.9
20260507073017 8 45 1.6 4.8 0.00 1.27 0.33 97 1012.9
20260507072516 8 68 1.6 6.4 0.00 1.27 0.33 97 1012.9
20260507072016 8 0.0 3.2 0.00 1.27 0.33 97 1012.8
20260507071516 8 68 1.6 6.4 0.00 1.27 0.33 97 1012.7
20260507071017 8 68 1.6 9.7 0.00 1.30 0.33 97 1012.6
20260507070516 8 68 1.6 4.8 0.00 1.30 0.33 97 1012.6
20260507070036 8 68 1.6 6.4 0.00 1.32 0.33 97 1012.6
20260507065016 8 68 1.6 8.0 0.00 1.32 0.33 97 1012.5
20260507064516 8 0.0 3.2 0.00 1.32 0.33 97 1012.5
20260507064016 8 68 3.2 11.3 0.00 1.35 0.33 97 1012.5
20260507063516 8 68 1.6 11.3 0.00 1.37 0.33 97 1012.4
20260507063016 8 68 3.2 12.9 0.00 1.37 0.33 97 1012.3
20260507062517 8 68 3.2 11.3 0.00 1.37 0.33 97 1012.2
20260507062016 8 68 3.2 16.1 0.00 1.37 0.33 97 1012.2
20260507061516 8 0.0 4.8 0.00 1.37 0.33 97 1012.0
20260507061016 8 68 1.6 8.0 0.00 1.40 0.33 97 1012.0
20260507060516 8 45 1.6 4.8 0.00 1.40 0.33 97 1011.9
20260507060018 8 0.0 1.6 0.00 1.40 0.33 97 1011.8
20260507055516 8 0.0 1.6 0.00 1.42 0.33 97 1011.8
20260507055016 8 0.0 4.8 0.00 1.45 0.33 97 1011.7
20260507054516 8 0.0 4.8 0.00 1.45 0.33 97 1011.7
20260507054017 8 45 3.2 11.3 0.00 1.45 0.33 97 1011.5
20260507053516 8 0.0 4.8 0.00 1.45 0.33 97 1011.5
20260507052517 8 0.0 3.2 0.00 1.47 0.33 97 1011.4
20260507052016 8 0 1.6 4.8 0.03 1.47 0.33 97 1011.4
20260507051517 8 68 1.6 11.3 0.03 1.47 0.33 97 1011.4
20260507051016 8 90 1.6 6.4 0.03 1.50 0.33 97 1011.2
20260507050516 8 0.0 6.4 0.03 1.50 0.33 97 1011.3
20260507050016 8 68 1.6 6.4 0.03 1.52 0.33 97 1011.1
20260507044516 8 68 1.6 6.4 0.05 1.55 0.33 97 1010.9
20260507044016 8 23 1.6 6.4 0.05 1.55 0.33 97 1010.9
20260507043516 8 68 1.6 14.5 0.05 1.55 0.33 97 1010.8
20260507043016 8 68 1.6 14.5 0.05 1.57 0.33 97 1010.8
20260507042516 8 68 1.6 11.3 0.05 1.60 0.33 97 1010.7
20260507042016 8 0.0 3.2 0.03 1.57 0.33 97 1010.7
20260507041516 8 0.0 8.0 0.03 1.57 0.33 97 1010.6
20260507041016 8 0.0 4.8 0.03 1.60 0.33 97 1010.6
20260507040516 8 338 1.6 4.8 0.03 1.63 0.33 97 1010.6
20260507040016 8 0.0 4.8 0.03 1.63 0.33 97 1010.5
20260507035516 8 90 1.6 8.0 0.03 1.65 0.33 97 1010.5
20260507034516 8 0.0 3.2 0.00 1.65 0.30 97 1010.4
20260507034016 8 0.0 4.8 0.00 1.65 0.30 97 1010.3
20260507033516 8 45 1.6 9.7 0.00 1.68 0.30 97 1010.3
20260507032516 8 0.0 4.8 0.00 1.70 0.30 97 1010.2
20260507031516 8 0.0 3.2 0.00 1.75 0.30 97 1010.2
20260507031016 8 45 1.6 4.8 0.00 1.78 0.30 97 1010.1
20260507030016 8 0.0 4.8 0.00 1.80 0.30 97 1010.1
20260507025516 8 0.0 4.8 0.00 1.83 0.30 97 1010.1
20260507025016 8 0.0 4.8 0.03 1.83 0.30 97 1010.0
20260507024516 8 0.0 6.4 0.03 1.83 0.30 97 1010.0
20260507024016 8 0.0 1.6 0.03 1.85 0.30 97 1010.0
20260507023015 8 0.0 1.6 0.05 1.91 0.30 97 1009.9
20260507022516 8 0.0 4.8 0.05 1.93 0.30 97 1009.9
20260507022015 8 0.0 1.6 0.05 1.96 0.30 97 1009.9
20260507021516 8 0.0 1.6 0.05 2.01 0.30 97 1009.9
20260507021016 8 0.0 4.8 0.05 2.01 0.30 97 1009.9
20260507020516 8 0.0 3.2 0.05 2.03 0.30 97 1009.8
20260507020016 8 0.0 1.6 0.05 2.03 0.30 97 1009.7
20260507015516 8 0.0 0.0 0.05 2.03 0.30 97 1009.7
20260507015016 8 0.0 3.2 0.03 2.03 0.28 97 1009.7
20260507012016 8 0.0 3.2 0.03 2.11 0.25 97 1009.5
20260507011515 8 0.0 4.8 0.03 2.11 0.25 97 1009.5
20260507010516 8 0.0 3.2 0.05 2.13 0.25 97 1009.5
20260507010016 8 0.0 1.6 0.05 2.16 0.25 97 1009.6
20260507005517 8 0.0 4.8 0.05 2.16 0.25 97 1009.6
20260507005018 8 0.0 3.2 0.05 2.16 0.25 97 1009.5
20260507004538 8 0.0 3.2 0.05 2.18 0.25 97 1009.4
20260507003518 8 0.0 1.6 0.05 2.21 0.25 97 1009.4
20260507003017 8 0.0 6.4 0.03 2.21 0.23 97 1009.4
20260507002018 9 0.0 3.2 0.05 2.24 0.23 97 1009.3
20260507001018 9 0.0 4.8 0.05 2.26 0.23 97 1009.3
20260507000517 9 0.0 8.0 0.05 2.26 0.23 97 1009.2
20260507000018 9 0.0 1.6 0.05 2.29 0.23 97 1009.3
20260506235518 9 0.0 1.6 0.05 2.29 0.23 97 1009.2
20260506235017 9 0.0 6.4 0.05 2.31 0.23 97 1009.3
20260506234517 9 0.0 6.4 0.08 2.31 0.23 97 1009.2
20260506234017 9 45 1.6 8.0 0.08 2.31 0.23 97 1009.2
20260506233018 9 0.0 1.6 0.13 2.31 0.23 97 1009.1
20260506232018 9 68 1.6 6.4 0.15 2.31 0.20 97 1009.0
20260506231538 9 45 1.6 8.0 0.15 2.31 0.20 97 1009.0
20260506230018 9 23 1.6 8.0 0.18 2.29 0.18 97 1008.9
20260506225518 9 68 1.6 11.3 0.18 2.26 0.15 97 1008.9
20260506225017 9 23 1.6 12.9 0.20 2.26 0.15 97 1008.9
20260506224517 9 68 1.6 8.0 0.20 2.24 0.15 97 1008.8
20260506224018 9 68 1.6 6.4 0.20 2.24 0.15 97 1008.8
20260506223018 9 68 3.2 6.4 0.20 2.21 0.10 97 1008.7
20260506222517 10 45 1.6 8.0 0.15 2.16 0.05 97 1008.6
20260506222017 10 45 1.6 8.0 0.15 2.16 0.05 97 1008.7
20260506221517 10 0.0 3.2 0.15 2.13 0.05 97 1008.6
20260506221018 10 0.0 3.2 0.13 2.11 0.03 97 1008.6
20260506220518 10 0.0 3.2 0.10 2.11 0.00 97 1008.6
20260506220017 10 23 1.6 4.8 0.10 2.11 2.11 97 1008.6
20260506215517 10 0.0 1.6 0.10 2.08 2.08 97 1008.6
20260506215016 10 68 1.6 4.8 0.08 2.06 2.06 97 1008.6
20260506214017 10 0.0 4.8 0.08 2.03 2.03 97 1008.5
20260506213516 10 0.0 1.6 0.05 2.03 2.03 97 1008.5
20260506213016 10 45 1.6 6.4 0.05 2.01 2.01 97 1008.4
20260506212517 10 0.0 4.8 0.05 2.01 2.01 97 1008.4
20260506212017 10 0.0 6.4 0.05 2.01 2.01 97 1008.4
20260506211516 10 68 1.6 11.3 0.05 2.01 2.01 97 1008.3
20260506211016 10 45 1.6 8.0 0.08 2.01 2.01 97 1008.2
20260506210517 10 270 1.6 6.4 0.08 2.03 2.01 97 1008.1
20260506210018 10 0.0 4.8 0.08 2.03 2.01 97 1008.1
20260506205516 10 68 1.6 8.0 0.05 2.01 1.98 97 1008.1
20260506205038 10 0.0 6.4 0.05 2.01 1.98 97 1008.1
20260506204516 10 68 1.6 11.3 0.05 2.01 1.98 97 1008.1
20260506204016 10 0.0 6.4 0.05 1.98 1.96 97 1008.1
20260506203516 10 45 3.2 9.7 0.05 1.98 1.96 97 1008.1
20260506203017 10 45 1.6 8.0 0.05 1.98 1.96 97 1008.0
20260506202516 10 45 1.6 8.0 0.05 1.98 1.96 97 1008.0
20260506202016 10 68 1.6 8.0 0.05 1.96 1.93 97 1008.1
20260506201516 10 0.0 3.2 0.05 1.96 1.93 97 1008.0
20260506201016 10 23 1.6 12.9 0.05 1.93 1.93 97 1008.0
20260506200516 10 45 3.2 12.9 0.05 1.93 1.93 97 1007.9
20260506195517 10 0.0 4.8 0.08 1.93 1.93 97 1007.9
20260506195017 10 248 1.6 9.7 0.08 1.93 1.93 97 1007.8
20260506193516 10 0.0 4.8 0.05 1.93 1.91 97 1007.7
20260506193017 10 23 1.6 9.7 0.08 1.93 1.91 97 1007.6
20260506192516 10 270 1.6 6.4 0.10 1.93 1.91 97 1007.6
20260506191016 10 0.0 3.2 0.08 1.91 1.88 97 1007.4
20260506190516 10 0.0 6.4 0.10 1.91 1.88 97 1007.3
20260506190018 10 0.0 4.8 0.10 1.88 1.85 97 1007.3
20260506185516 10 270 1.6 4.8 0.08 1.85 1.83 97 1007.3
20260506185016 10 0.0 3.2 0.08 1.85 1.83 97 1007.2
20260506184516 10 0.0 6.4 0.08 1.85 1.83 97 1007.2
20260506184016 10 0.0 4.8 0.08 1.85 1.83 97 1007.2
20260506183016 10 0.0 6.4 0.05 1.83 1.83 96 1007.1
20260506182516 10 0.0 6.4 0.05 1.83 1.80 96 1007.1
20260506181516 10 45 1.6 9.7 0.05 1.83 1.80 96 1007.0
20260506181016 10 0.0 6.4 0.05 1.83 1.80 96 1006.9
20260506180516 10 0.0 4.8 0.05 1.80 1.78 96 1006.9
20260506180017 10 0.0 4.8 0.03 1.78 1.75 96 1006.9
20260506175517 10 248 1.6 6.4 0.05 1.78 1.75 96 1006.9
20260506175016 10 248 1.6 9.7 0.05 1.78 1.75 96 1006.8
20260506174016 10 270 1.6 6.4 0.05 1.78 1.75 97 1006.9
20260506173516 10 293 1.6 9.7 0.05 1.78 1.75 97 1006.9
20260506172517 10 0.0 4.8 0.05 1.78 1.75 97 1006.8
20260506172016 10 270 1.6 6.4 0.05 1.78 1.75 96 1006.8
20260506171516 10 0.0 3.2 0.05 1.75 1.75 96 1006.8
20260506171017 10 315 1.6 6.4 0.05 1.75 1.75 96 1006.7
20260506170516 10 45 1.6 6.4 0.05 1.75 1.75 96 1006.5
20260506170016 10 0.0 3.2 0.05 1.75 1.75 96 1006.6
20260506165516 10 0.0 1.6 0.05 1.75 1.73 96 1006.6
20260506165016 10 0.0 0.0 0.05 1.75 1.73 96 1006.7
20260506164517 10 0.0 3.2 0.08 1.75 1.73 96 1006.7
20260506163516 10 0.0 3.2 0.08 1.73 1.70 96 1006.7
20260506163016 10 293 1.6 6.4 0.10 1.73 1.70 96 1006.8
20260506162516 10 0.0 3.2 0.10 1.73 1.70 96 1006.7
20260506162016 10 248 1.6 9.7 0.10 1.73 1.70 96 1006.6
20260506161517 10 0.0 3.2 0.08 1.70 1.68 96 1006.5
20260506161016 10 0.0 3.2 0.08 1.70 1.68 96 1006.5
20260506160516 10 0.0 1.6 0.08 1.70 1.68 96 1006.5
20260506160016 10 68 1.6 8.0 0.08 1.70 1.68 96 1006.5
20260506155516 10 0.0 4.8 0.08 1.70 1.68 96 1006.5
20260506154516 10 0.0 4.8 0.05 1.65 1.65 96 1006.5
20260506154016 10 270 1.6 6.4 0.05 1.65 1.65 96 1006.5
20260506153516 10 0.0 6.4 0.03 1.65 1.63 96 1006.5
20260506153016 10 0.0 6.4 0.03 1.63 1.60 96 1006.5
20260506152517 10 0.0 1.6 0.03 1.63 1.60 96 1006.6
20260506152016 10 0.0 4.8 0.03 1.63 1.60 96 1006.5
20260506151516 10 0.0 1.6 0.03 1.63 1.60 96 1006.5
20260506151016 10 0.0 3.2 0.05 1.63 1.60 96 1006.5
20260506150516 10 0.0 0.0 0.05 1.63 1.60 97 1006.4
20260506150016 10 0.0 3.2 0.05 1.63 1.60 97 1006.4
20260506145016 10 0.0 4.8 0.05 1.63 1.60 96 1006.4
20260506144516 10 0.0 3.2 0.08 1.63 1.60 96 1006.4
20260506144016 10 0.0 6.4 0.08 1.63 1.60 96 1006.3
20260506143516 10 0.0 6.4 0.10 1.63 1.60 96 1006.3
20260506143016 10 225 1.6 6.4 0.08 1.60 1.57 96 1006.3
20260506142516 10 270 1.6 9.7 0.10 1.60 1.57 96 1006.3
20260506142016 10 0.0 3.2 0.10 1.60 1.57 96 1006.3
20260506141516 10 68 1.6 6.4 0.10 1.60 1.57 96 1006.4
20260506140516 10 0.0 4.8 0.08 1.57 1.55 96 1006.4
20260506140016 10 23 1.6 8.0 0.08 1.57 1.55 96 1006.4
20260506135516 10 0.0 1.6 0.08 1.55 1.55 96 1006.5
20260506135018 10 0.0 4.8 0.08 1.55 1.55 96 1006.4
20260506134517 10 68 1.6 4.8 0.08 1.55 1.52 96 1006.4
20260506134016 10 23 1.6 8.0 0.08 1.55 1.52 96 1006.4
20260506133516 10 68 1.6 6.4 0.05 1.52 1.50 96 1006.5
20260506133016 10 68 1.6 11.3 0.05 1.52 1.50 96 1006.4
20260506132516 10 68 1.6 8.0 0.05 1.50 1.47 96 1006.5
20260506132016 10 90 1.6 11.3 0.05 1.50 1.47 96 1006.4
20260506131536 10 0.0 4.8 0.05 1.50 1.47 96 1006.3
20260506130516 10 68 3.2 9.7 0.05 1.50 1.47 96 1006.2
20260506130016 10 0.0 3.2 0.05 1.50 1.47 96 1006.2
20260506125516 10 68 1.6 14.5 0.05 1.47 1.45 96 1006.2
20260506125016 10 68 3.2 14.5 0.05 1.47 1.45 96 1006.2
20260506124516 10 68 1.6 4.8 0.05 1.45 1.45 96 1006.2
20260506124016 10 68 1.6 6.4 0.05 1.45 1.45 96 1006.3
20260506123016 10 45 3.2 12.9 0.05 1.45 1.45 96 1006.2
20260506122016 10 68 1.6 8.0 0.05 1.45 1.45 96 1006.1
20260506121517 10 0 1.6 4.8 0.08 1.45 1.45 96 1006.1
20260506121016 10 0.0 4.8 0.08 1.45 1.45 96 1006.1
20260506120516 10 68 3.2 12.9 0.05 1.45 1.42 96 1006.1
20260506120016 10 68 3.2 11.3 0.05 1.45 1.42 96 1006.0
20260506115516 10 45 1.6 11.3 0.05 1.45 1.42 96 1006.0
20260506114516 10 90 3.2 9.7 0.05 1.42 1.40 96 1006.1
20260506114017 10 68 4.8 11.3 0.05 1.42 1.40 96 1006.1
20260506113016 10 45 3.2 12.9 0.05 1.42 1.40 96 1006.1
20260506112516 10 45 1.6 8.0 0.05 1.40 1.37 96 1006.1
20260506112016 10 68 3.2 11.3 0.05 1.40 1.37 96 1006.2
20260506111516 9 0.0 3.2 0.03 1.37 1.37 96 1006.1
20260506111017 9 68 3.2 12.9 0.03 1.37 1.37 96 1006.2
20260506110516 9 68 3.2 8.0 0.03 1.37 1.37 96 1006.1
20260506110016 9 68 3.2 11.3 0.03 1.37 1.37 96 1006.1
20260506105516 9 0.0 3.2 0.03 1.37 1.37 96 1006.2
20260506105016 9 68 3.2 8.0 0.03 1.37 1.37 96 1006.1
20260506104516 9 68 3.2 12.9 0.00 1.37 1.35 96 1006.1
20260506104016 9 68 3.2 12.9 0.03 1.37 1.35 96 1006.1
20260506103516 9 68 1.6 12.9 0.03 1.37 1.35 96 1006.1
20260506103017 9 68 3.2 12.9 0.03 1.37 1.35 96 1006.1
20260506102016 9 0.0 4.8 0.03 1.37 1.35 96 1006.0
20260506101516 9 68 1.6 8.0 0.03 1.37 1.35 96 1006.1
20260506100516 9 45 1.6 8.0 0.05 1.37 1.35 96 1006.0
20260506100036 9 0.0 4.8 0.05 1.37 1.35 96 1006.0
20260506095516 8 45 1.6 8.0 0.05 1.37 1.35 96 1006.0
20260506095016 8 45 1.6 4.8 0.05 1.37 1.35 96 1006.0
20260506094516 8 68 1.6 6.4 0.05 1.37 1.35 96 1006.0